Tracking 19909 objects as of 23-Oct-2019
HD Live streaming from Space Station
objects crossing your sky now

LEMUR-2 VICTOR-ANDREW

Track LEMUR-2 VICTOR-ANDREW now!
10-day predictions
LEMUR-2 VICTOR-ANDREW is classified as:


NORAD ID: 44087
Int'l Code: 2019-018K
Perigee: 498.0 km
Apogee: 514.3 km
Inclination: 97.4 °
Period: 94.6 minutes
Semi major axis: 6877 km
RCS: Unknown
Launch date: April 1, 2019
Source: United States (US)
Launch site: SRIHARIKOTA (SRI)
aabbcc
Your satellite tracking list
Your tracking list is empty




NASA's NSSDC Master Catalog

Two Line Element Set (TLE):
1 44087U 19018K   19295.82476063 +.00002229 +00000-0 +99839-4 0  9991
2 44087 097.4441 354.5405 0011857 289.7932 070.2026 15.22253025031101
Source of the keplerian elements: AFSPC